Year,Month,Day,Hour,Minute,Value (Times are PST for temperature in C)
2015,12,06,01,31,9.80
2015,12,06,01,32,9.80
2015,12,06,01,33,9.80
2015,12,06,01,34,9.80
2015,12,06,01,35,9.80
2015,12,06,01,36,9.80
2015,12,06,01,37,9.80
2015,12,06,01,38,9.80
2015,12,06,01,39,9.80
2015,12,06,01,40,9.80
2015,12,06,01,41,9.80
2015,12,06,01,42,9.80
2015,12,06,01,43,9.80
2015,12,06,01,44,9.80
2015,12,06,01,45,9.80
2015,12,06,01,46,9.80
2015,12,06,01,47,9.80
2015,12,06,01,48,9.80
2015,12,06,01,49,9.80
2015,12,06,01,50,9.80
2015,12,06,01,51,9.80
2015,12,06,01,52,9.80
2015,12,06,01,53,9.80
2015,12,06,01,54,9.80
2015,12,06,01,55,9.80
2015,12,06,01,56,9.80
2015,12,06,01,57,9.80
2015,12,06,01,58,9.80
2015,12,06,01,59,9.80
2015,12,06,02,00,9.80
2015,12,06,02,01,9.70
2015,12,06,02,02,9.70
2015,12,06,02,03,9.70
2015,12,06,02,04,9.70
2015,12,06,02,05,9.70
2015,12,06,02,06,9.70
2015,12,06,02,07,9.70
2015,12,06,02,08,9.70
2015,12,06,02,09,9.70
2015,12,06,02,10,9.70
2015,12,06,02,11,9.70
2015,12,06,02,12,9.70
2015,12,06,02,13,9.70
2015,12,06,02,14,9.70
2015,12,06,02,15,9.70
2015,12,06,02,16,9.70
2015,12,06,02,17,9.70
2015,12,06,02,18,9.70
2015,12,06,02,19,9.70
2015,12,06,02,20,9.70
2015,12,06,02,21,9.70
2015,12,06,02,22,9.70
2015,12,06,02,23,9.70
2015,12,06,02,24,9.70
2015,12,06,02,25,9.70
2015,12,06,02,26,9.70
2015,12,06,02,27,9.70
2015,12,06,02,28,9.70
2015,12,06,02,29,9.70
2015,12,06,02,30,9.70
2015,12,06,02,31,9.40
2015,12,06,02,32,9.40
2015,12,06,02,33,9.40
2015,12,06,02,34,9.40
2015,12,06,02,35,9.40
2015,12,06,02,36,9.40
2015,12,06,02,37,9.40
2015,12,06,02,38,9.40
2015,12,06,02,39,9.40
2015,12,06,02,40,9.40
2015,12,06,02,41,9.40
2015,12,06,02,42,9.40
2015,12,06,02,43,9.40
2015,12,06,02,44,9.40
2015,12,06,02,45,9.40
2015,12,06,02,46,9.40
2015,12,06,02,47,9.40
2015,12,06,02,48,9.40
2015,12,06,02,49,9.40
2015,12,06,02,50,9.40
2015,12,06,02,51,9.40
2015,12,06,02,52,9.40
2015,12,06,02,53,9.40
2015,12,06,02,54,9.40
2015,12,06,02,55,9.40
2015,12,06,02,56,9.40
2015,12,06,02,57,9.40
2015,12,06,02,58,9.40
2015,12,06,02,59,9.40
2015,12,06,03,00,9.40
2015,12,06,03,01,9.30
2015,12,06,03,02,9.30
2015,12,06,03,03,9.30
2015,12,06,03,04,9.30
2015,12,06,03,05,9.30
2015,12,06,03,06,9.30
2015,12,06,03,07,9.30
2015,12,06,03,08,9.30
2015,12,06,03,09,9.30
2015,12,06,03,10,9.30
2015,12,06,03,11,9.30
2015,12,06,03,12,9.30
2015,12,06,03,13,9.30
2015,12,06,03,14,9.30
2015,12,06,03,15,9.30
2015,12,06,03,16,9.30
2015,12,06,03,17,9.30
2015,12,06,03,18,9.30
2015,12,06,03,19,9.30
2015,12,06,03,20,9.30
2015,12,06,03,21,9.30
2015,12,06,03,22,9.30
2015,12,06,03,23,9.30
2015,12,06,03,24,9.30
2015,12,06,03,25,9.30
2015,12,06,03,26,9.30
2015,12,06,03,27,9.30
2015,12,06,03,28,9.30
2015,12,06,03,29,9.30
2015,12,06,03,30,9.30
2015,12,06,03,31,9.30
2015,12,06,03,32,9.30
2015,12,06,03,33,9.30
2015,12,06,03,34,9.30
2015,12,06,03,35,9.30
2015,12,06,03,36,9.30
2015,12,06,03,37,9.30
2015,12,06,03,38,9.30
2015,12,06,03,39,9.30
2015,12,06,03,40,9.30
2015,12,06,03,41,9.30
2015,12,06,03,42,9.30
2015,12,06,03,43,9.30
2015,12,06,03,44,9.30
2015,12,06,03,45,9.30
2015,12,06,03,46,9.30
2015,12,06,03,47,9.30
2015,12,06,03,48,9.30
2015,12,06,03,49,9.30
2015,12,06,03,50,9.30
2015,12,06,03,51,9.30
2015,12,06,03,52,9.30
2015,12,06,03,53,9.30
2015,12,06,03,54,9.30
2015,12,06,03,55,9.30
2015,12,06,03,56,9.30
2015,12,06,03,57,9.30
2015,12,06,03,58,9.30
2015,12,06,03,59,9.30
2015,12,06,04,00,9.30
2015,12,06,04,01,9.40
2015,12,06,04,02,9.40
2015,12,06,04,03,9.40
2015,12,06,04,04,9.40
2015,12,06,04,05,9.40
2015,12,06,04,06,9.40
2015,12,06,04,07,9.40
2015,12,06,04,08,9.40
2015,12,06,04,09,9.40
2015,12,06,04,10,9.40
2015,12,06,04,11,9.40
2015,12,06,04,12,9.40
2015,12,06,04,13,9.40
2015,12,06,04,14,9.40
2015,12,06,04,15,9.40
2015,12,06,04,16,9.40
2015,12,06,04,17,9.40
2015,12,06,04,18,9.40
2015,12,06,04,19,9.40
2015,12,06,04,20,9.40
2015,12,06,04,21,9.40
2015,12,06,04,22,9.40
2015,12,06,04,23,9.40
2015,12,06,04,24,9.40
2015,12,06,04,25,9.40
2015,12,06,04,26,9.40
2015,12,06,04,27,9.40
2015,12,06,04,28,9.40
2015,12,06,04,29,9.40
2015,12,06,04,30,9.40
2015,12,06,04,31,9.30
2015,12,06,04,32,9.30
2015,12,06,04,33,9.30
2015,12,06,04,34,9.30
2015,12,06,04,35,9.30
2015,12,06,04,36,9.30
2015,12,06,04,37,9.30
2015,12,06,04,38,9.30
2015,12,06,04,39,9.30
2015,12,06,04,40,9.30
2015,12,06,04,41,9.30
2015,12,06,04,42,9.30
2015,12,06,04,43,9.30
2015,12,06,04,44,9.30
2015,12,06,04,45,9.30
2015,12,06,04,46,9.30
2015,12,06,04,47,9.30
2015,12,06,04,48,9.30
2015,12,06,04,49,9.30
2015,12,06,04,50,9.30
2015,12,06,04,51,9.30
2015,12,06,04,52,9.30
2015,12,06,04,53,9.30
2015,12,06,04,54,9.30
2015,12,06,04,55,9.30
2015,12,06,04,56,9.30
2015,12,06,04,57,9.30
2015,12,06,04,58,9.30
2015,12,06,04,59,9.30
2015,12,06,05,00,9.30
2015,12,06,05,01,9.30
2015,12,06,05,02,9.30
2015,12,06,05,03,9.30
2015,12,06,05,04,9.30
2015,12,06,05,05,9.30
2015,12,06,05,06,9.30
2015,12,06,05,07,9.30
2015,12,06,05,08,9.30
2015,12,06,05,09,9.30
2015,12,06,05,10,9.30
2015,12,06,05,11,9.30
2015,12,06,05,12,9.30
2015,12,06,05,13,9.30
2015,12,06,05,14,9.30
2015,12,06,05,15,9.30
2015,12,06,05,16,9.30
2015,12,06,05,17,9.30
2015,12,06,05,18,9.30
2015,12,06,05,19,9.30
2015,12,06,05,20,9.30
2015,12,06,05,21,9.30
2015,12,06,05,22,9.30
2015,12,06,05,23,9.30
2015,12,06,05,24,9.30
2015,12,06,05,25,9.30
2015,12,06,05,26,9.30
2015,12,06,05,27,9.30
2015,12,06,05,28,9.30
2015,12,06,05,29,9.30
2015,12,06,05,30,9.30
2015,12,06,05,31,9.40
2015,12,06,05,32,9.40
2015,12,06,05,33,9.40
2015,12,06,05,34,9.40
2015,12,06,05,35,9.40
2015,12,06,05,36,9.40
2015,12,06,05,37,9.40
2015,12,06,05,38,9.40
2015,12,06,05,39,9.40
2015,12,06,05,40,9.40
2015,12,06,05,41,9.40
2015,12,06,05,42,9.40
2015,12,06,05,43,9.40
2015,12,06,05,44,9.40
2015,12,06,05,45,9.40
2015,12,06,05,46,9.40
2015,12,06,05,47,9.40
2015,12,06,05,48,9.40
2015,12,06,05,49,9.40
2015,12,06,05,50,9.40
2015,12,06,05,51,9.40
2015,12,06,05,52,9.40
2015,12,06,05,53,9.40
2015,12,06,05,54,9.40
2015,12,06,05,55,9.40
2015,12,06,05,56,9.40
2015,12,06,05,57,9.40
2015,12,06,05,58,9.40
2015,12,06,05,59,9.40
2015,12,06,06,00,9.40
2015,12,06,06,01,9.40
2015,12,06,06,02,9.40
2015,12,06,06,03,9.40
2015,12,06,06,04,9.40
2015,12,06,06,05,9.40
2015,12,06,06,06,9.40
2015,12,06,06,07,9.40
2015,12,06,06,08,9.40
2015,12,06,06,09,9.40
2015,12,06,06,10,9.40
2015,12,06,06,11,9.40
2015,12,06,06,12,9.40
2015,12,06,06,13,9.40
2015,12,06,06,14,9.40
2015,12,06,06,15,9.40
2015,12,06,06,16,9.40
2015,12,06,06,17,9.40
2015,12,06,06,18,9.40
2015,12,06,06,19,9.40
2015,12,06,06,20,9.40
2015,12,06,06,21,9.40
2015,12,06,06,22,9.40
2015,12,06,06,23,9.40
2015,12,06,06,24,9.40
2015,12,06,06,25,9.40
2015,12,06,06,26,9.40
2015,12,06,06,27,9.40
2015,12,06,06,28,9.40
2015,12,06,06,29,9.40
2015,12,06,06,30,9.40
2015,12,06,06,31,9.40
2015,12,06,06,32,9.40
2015,12,06,06,33,9.40
2015,12,06,06,34,9.40
2015,12,06,06,35,9.40
2015,12,06,06,36,9.40
2015,12,06,06,37,9.40
2015,12,06,06,38,9.40
2015,12,06,06,39,9.40
2015,12,06,06,40,9.40
2015,12,06,06,41,9.40
2015,12,06,06,42,9.40
2015,12,06,06,43,9.40
2015,12,06,06,44,9.40
2015,12,06,06,45,9.40
2015,12,06,06,46,9.40
2015,12,06,06,47,9.40
2015,12,06,06,48,9.40
2015,12,06,06,49,9.40
2015,12,06,06,50,9.40
2015,12,06,06,51,9.40
2015,12,06,06,52,9.40
2015,12,06,06,53,9.40
2015,12,06,06,54,9.40
2015,12,06,06,55,9.40
2015,12,06,06,56,9.40
2015,12,06,06,57,9.40
2015,12,06,06,58,9.40
2015,12,06,06,59,9.40
2015,12,06,07,00,9.40
2015,12,06,07,01,9.40
2015,12,06,07,02,9.40
2015,12,06,07,03,9.40
2015,12,06,07,04,9.40
2015,12,06,07,05,9.40
2015,12,06,07,06,9.40
2015,12,06,07,07,9.40
2015,12,06,07,08,9.40
2015,12,06,07,09,9.40
2015,12,06,07,10,9.40
2015,12,06,07,11,9.40
2015,12,06,07,12,9.40
2015,12,06,07,13,9.40
2015,12,06,07,14,9.40
2015,12,06,07,15,9.40
2015,12,06,07,16,9.40
2015,12,06,07,17,9.40
2015,12,06,07,18,9.40
2015,12,06,07,19,9.40
2015,12,06,07,20,9.40
2015,12,06,07,21,9.40
2015,12,06,07,22,9.40
2015,12,06,07,23,9.40
2015,12,06,07,24,9.40
2015,12,06,07,25,9.40
2015,12,06,07,26,9.40
2015,12,06,07,27,9.40
2015,12,06,07,28,9.40
2015,12,06,07,29,9.40
2015,12,06,07,30,9.40
2015,12,06,07,31,9.40
2015,12,06,07,32,9.40
2015,12,06,07,33,9.40
2015,12,06,07,34,9.40
2015,12,06,07,35,9.40
2015,12,06,07,36,9.40
2015,12,06,07,37,9.40
2015,12,06,07,38,9.40
2015,12,06,07,39,9.40
2015,12,06,07,40,9.40
2015,12,06,07,41,9.40
2015,12,06,07,42,9.40
2015,12,06,07,43,9.40
2015,12,06,07,44,9.40
2015,12,06,07,45,9.40
2015,12,06,07,46,9.40
2015,12,06,07,47,9.40
2015,12,06,07,48,9.40
2015,12,06,07,49,9.40
2015,12,06,07,50,9.40
2015,12,06,07,51,9.40
2015,12,06,07,52,9.40
2015,12,06,07,53,9.40
2015,12,06,07,54,9.40
2015,12,06,07,55,9.40
2015,12,06,07,56,9.40
2015,12,06,07,57,9.40
2015,12,06,07,58,9.40
2015,12,06,07,59,9.40
2015,12,06,08,00,9.40
2015,12,06,08,01,9.30
2015,12,06,08,02,9.30
2015,12,06,08,03,9.30
2015,12,06,08,04,9.30
2015,12,06,08,05,9.30
2015,12,06,08,06,9.30
2015,12,06,08,07,9.30
2015,12,06,08,08,9.30
2015,12,06,08,09,9.30
2015,12,06,08,10,9.30
2015,12,06,08,11,9.30
2015,12,06,08,12,9.30
2015,12,06,08,13,9.30
2015,12,06,08,14,9.30
2015,12,06,08,15,9.30
2015,12,06,08,16,9.30
2015,12,06,08,17,9.30
2015,12,06,08,18,9.30
2015,12,06,08,19,9.30
2015,12,06,08,20,9.30
2015,12,06,08,21,9.30
2015,12,06,08,22,9.30
2015,12,06,08,23,9.30
2015,12,06,08,24,9.30
2015,12,06,08,25,9.30
2015,12,06,08,26,9.30
2015,12,06,08,27,9.30
2015,12,06,08,28,9.30
2015,12,06,08,29,9.30
2015,12,06,08,30,9.30
2015,12,06,08,31,9.30
2015,12,06,08,32,9.30
2015,12,06,08,33,9.30
2015,12,06,08,34,9.30
2015,12,06,08,35,9.30
2015,12,06,08,36,9.30
2015,12,06,08,37,9.30
2015,12,06,08,38,9.30
2015,12,06,08,39,9.30
2015,12,06,08,40,9.30
2015,12,06,08,41,9.30
2015,12,06,08,42,9.30
2015,12,06,08,43,9.30
2015,12,06,08,44,9.30
2015,12,06,08,45,9.30
2015,12,06,08,46,9.30
2015,12,06,08,47,9.30
2015,12,06,08,48,9.30
2015,12,06,08,49,9.30
2015,12,06,08,50,9.30
2015,12,06,08,51,9.30
2015,12,06,08,52,9.30
2015,12,06,08,53,9.30
2015,12,06,08,54,9.30
2015,12,06,08,55,9.30
2015,12,06,08,56,9.30
2015,12,06,08,57,9.30
2015,12,06,08,58,9.30
2015,12,06,08,59,9.30
2015,12,06,09,00,9.30
2015,12,06,09,01,9.30
2015,12,06,09,02,9.30
2015,12,06,09,03,9.30
2015,12,06,09,04,9.30
2015,12,06,09,05,9.30
2015,12,06,09,06,9.30
2015,12,06,09,07,9.30
2015,12,06,09,08,9.30
2015,12,06,09,09,9.30
2015,12,06,09,10,9.30
2015,12,06,09,11,9.30
2015,12,06,09,12,9.30
2015,12,06,09,13,9.30
2015,12,06,09,14,9.30
2015,12,06,09,15,9.30
2015,12,06,09,16,9.30
2015,12,06,09,17,9.30
2015,12,06,09,18,9.30
2015,12,06,09,19,9.30
2015,12,06,09,20,9.30
2015,12,06,09,21,9.30
2015,12,06,09,22,9.30
2015,12,06,09,23,9.30
2015,12,06,09,24,9.30
2015,12,06,09,25,9.30
2015,12,06,09,26,9.30
2015,12,06,09,27,9.30
2015,12,06,09,28,9.30
2015,12,06,09,29,9.30
2015,12,06,09,30,9.30
2015,12,06,09,31,9.30
2015,12,06,09,32,9.30
2015,12,06,09,33,9.30
2015,12,06,09,34,9.30
2015,12,06,09,35,9.30
2015,12,06,09,36,9.30
2015,12,06,09,37,9.30
2015,12,06,09,38,9.30
2015,12,06,09,39,9.30
2015,12,06,09,40,9.30
2015,12,06,09,41,9.30
2015,12,06,09,42,9.30
2015,12,06,09,43,9.30
2015,12,06,09,44,9.30
2015,12,06,09,45,9.30
2015,12,06,09,46,9.30
2015,12,06,09,47,9.30
2015,12,06,09,48,9.30
2015,12,06,09,49,9.30
2015,12,06,09,50,9.30
2015,12,06,09,51,9.30
2015,12,06,09,52,9.30
2015,12,06,09,53,9.30
2015,12,06,09,54,9.30
2015,12,06,09,55,9.30
2015,12,06,09,56,9.30
2015,12,06,09,57,9.30
2015,12,06,09,58,9.30
2015,12,06,09,59,9.30
2015,12,06,10,00,9.30
2015,12,06,10,01,9.50
2015,12,06,10,02,9.50
2015,12,06,10,03,9.50
2015,12,06,10,04,9.50
2015,12,06,10,05,9.50
2015,12,06,10,06,9.50
2015,12,06,10,07,9.50
2015,12,06,10,08,9.50
2015,12,06,10,09,9.50
2015,12,06,10,10,9.50
2015,12,06,10,11,9.50
2015,12,06,10,12,9.50
2015,12,06,10,13,9.50
2015,12,06,10,14,9.50
2015,12,06,10,15,9.50
2015,12,06,10,16,9.50
2015,12,06,10,17,9.50
2015,12,06,10,18,9.50
2015,12,06,10,19,9.50
2015,12,06,10,20,9.50
2015,12,06,10,21,9.50
2015,12,06,10,22,9.50
2015,12,06,10,23,9.50
2015,12,06,10,24,9.50
2015,12,06,10,25,9.50
2015,12,06,10,26,9.50
2015,12,06,10,27,9.50
2015,12,06,10,28,9.50
2015,12,06,10,29,9.50
2015,12,06,10,30,9.50
2015,12,06,10,31,9.90
2015,12,06,10,32,9.90
2015,12,06,10,33,9.90
2015,12,06,10,34,9.90
2015,12,06,10,35,9.90
2015,12,06,10,36,9.90
2015,12,06,10,37,9.90
2015,12,06,10,38,9.90
2015,12,06,10,39,9.90
2015,12,06,10,40,9.90
2015,12,06,10,41,9.90
2015,12,06,10,42,9.90
2015,12,06,10,43,9.90
2015,12,06,10,44,9.90
2015,12,06,10,45,9.90
2015,12,06,10,46,9.90
2015,12,06,10,47,9.90
2015,12,06,10,48,9.90
2015,12,06,10,49,9.90
2015,12,06,10,50,9.90
2015,12,06,10,51,9.90
2015,12,06,10,52,9.90
2015,12,06,10,53,9.90
2015,12,06,10,54,9.90
2015,12,06,10,55,9.90
2015,12,06,10,56,9.90
2015,12,06,10,57,9.90
2015,12,06,10,58,9.90
2015,12,06,10,59,9.90
2015,12,06,11,00,9.90
2015,12,06,11,01,9.80
2015,12,06,11,02,9.80
2015,12,06,11,03,9.80
2015,12,06,11,04,9.80
2015,12,06,11,05,9.80
2015,12,06,11,06,9.80
2015,12,06,11,07,9.80
2015,12,06,11,08,9.80
2015,12,06,11,09,9.80
2015,12,06,11,10,9.80
2015,12,06,11,11,9.80
2015,12,06,11,12,9.80
2015,12,06,11,13,9.80
2015,12,06,11,14,9.80
2015,12,06,11,15,9.80
2015,12,06,11,16,9.80
2015,12,06,11,17,9.80
2015,12,06,11,18,9.80
2015,12,06,11,19,9.80
2015,12,06,11,20,9.80
2015,12,06,11,21,9.80
2015,12,06,11,22,9.80
2015,12,06,11,23,9.80
2015,12,06,11,24,9.80
2015,12,06,11,25,9.80
2015,12,06,11,26,9.80
2015,12,06,11,27,9.80
2015,12,06,11,28,9.80
2015,12,06,11,29,9.80
2015,12,06,11,30,9.80
2015,12,06,11,31,9.80
2015,12,06,11,32,9.80
2015,12,06,11,33,9.80
2015,12,06,11,34,9.80
2015,12,06,11,35,9.80
2015,12,06,11,36,9.80
2015,12,06,11,37,9.80
2015,12,06,11,38,9.80
2015,12,06,11,39,9.80
2015,12,06,11,40,9.80
2015,12,06,11,41,9.80
2015,12,06,11,42,9.80
2015,12,06,11,43,9.80
2015,12,06,11,44,9.80
2015,12,06,11,45,9.80
2015,12,06,11,46,9.80
2015,12,06,11,47,9.80
2015,12,06,11,48,9.80
2015,12,06,11,49,9.80
2015,12,06,11,50,9.80
2015,12,06,11,51,9.80
2015,12,06,11,52,9.80
2015,12,06,11,53,9.80
2015,12,06,11,54,9.80
2015,12,06,11,55,9.80
2015,12,06,11,56,9.80
2015,12,06,11,57,9.80
2015,12,06,11,58,9.80
2015,12,06,11,59,9.80
2015,12,06,12,00,9.80
2015,12,06,12,01,9.80
2015,12,06,12,02,9.80
2015,12,06,12,03,9.80
2015,12,06,12,04,9.80
2015,12,06,12,05,9.80
2015,12,06,12,06,9.80
2015,12,06,12,07,9.80
2015,12,06,12,08,9.80
2015,12,06,12,09,9.80
2015,12,06,12,10,9.80
2015,12,06,12,11,9.80
2015,12,06,12,12,9.80
2015,12,06,12,13,9.80
2015,12,06,12,14,9.80
2015,12,06,12,15,9.80
2015,12,06,12,16,9.80
2015,12,06,12,17,9.80
2015,12,06,12,18,9.80
2015,12,06,12,19,9.80
2015,12,06,12,20,9.80
2015,12,06,12,21,9.80
2015,12,06,12,22,9.80
2015,12,06,12,23,9.80
2015,12,06,12,24,9.80
2015,12,06,12,25,9.80
2015,12,06,12,26,9.80
2015,12,06,12,27,9.80
2015,12,06,12,28,9.80
2015,12,06,12,29,9.80
2015,12,06,12,30,9.80
2015,12,06,12,31,10.20
2015,12,06,12,32,10.20
2015,12,06,12,33,10.20
2015,12,06,12,34,10.20
2015,12,06,12,35,10.20
2015,12,06,12,36,10.20
2015,12,06,12,37,10.20
2015,12,06,12,38,10.20
2015,12,06,12,39,10.20
2015,12,06,12,40,10.20
2015,12,06,12,41,10.20
2015,12,06,12,42,10.20
2015,12,06,12,43,10.20
2015,12,06,12,44,10.20
2015,12,06,12,45,10.20
2015,12,06,12,46,10.20
2015,12,06,12,47,10.20
2015,12,06,12,48,10.20
2015,12,06,12,49,10.20
2015,12,06,12,50,10.20
2015,12,06,12,51,10.20
2015,12,06,12,52,10.20
2015,12,06,12,53,10.20
2015,12,06,12,54,10.20
2015,12,06,12,55,10.20
2015,12,06,12,56,10.20
2015,12,06,12,57,10.20
2015,12,06,12,58,10.20
2015,12,06,12,59,10.20
2015,12,06,13,00,10.20
2015,12,06,13,01,9.80
2015,12,06,13,02,9.80
2015,12,06,13,03,9.80
2015,12,06,13,04,9.80
2015,12,06,13,05,9.80
2015,12,06,13,06,9.80
2015,12,06,13,07,9.80
2015,12,06,13,08,9.80
2015,12,06,13,09,9.80
2015,12,06,13,10,9.80
2015,12,06,13,11,9.80
2015,12,06,13,12,9.80
2015,12,06,13,13,9.80
2015,12,06,13,14,9.80
2015,12,06,13,15,9.80
2015,12,06,13,16,9.80
2015,12,06,13,17,9.80
2015,12,06,13,18,9.80
2015,12,06,13,19,9.80
2015,12,06,13,20,9.80
2015,12,06,13,21,9.80
2015,12,06,13,22,9.80
2015,12,06,13,23,9.80
2015,12,06,13,24,9.80
2015,12,06,13,25,9.80
2015,12,06,13,26,9.80
2015,12,06,13,27,9.80
2015,12,06,13,28,9.80
2015,12,06,13,29,9.80
2015,12,06,13,30,9.80
2015,12,06,13,31,9.80
2015,12,06,13,32,9.80
2015,12,06,13,33,9.80
2015,12,06,13,34,9.80
2015,12,06,13,35,9.80
2015,12,06,13,36,9.80
2015,12,06,13,37,9.80
2015,12,06,13,38,9.80
2015,12,06,13,39,9.80
2015,12,06,13,40,9.80
2015,12,06,13,41,9.80
2015,12,06,13,42,9.80
2015,12,06,13,43,9.80
2015,12,06,13,44,9.80
2015,12,06,13,45,9.80
2015,12,06,13,46,9.80
2015,12,06,13,47,9.80
2015,12,06,13,48,9.80
2015,12,06,13,49,9.80
2015,12,06,13,50,9.80
2015,12,06,13,51,9.80
2015,12,06,13,52,9.80
2015,12,06,13,53,9.80
2015,12,06,13,54,9.80
2015,12,06,13,55,9.80
2015,12,06,13,56,9.80
2015,12,06,13,57,9.80
2015,12,06,13,58,9.80
2015,12,06,13,59,9.80
2015,12,06,14,00,9.80
2015,12,06,14,01,9.70
2015,12,06,14,02,9.70
2015,12,06,14,03,9.70
2015,12,06,14,04,9.70
2015,12,06,14,05,9.70
2015,12,06,14,06,9.70
2015,12,06,14,07,9.70
2015,12,06,14,08,9.70
2015,12,06,14,09,9.70
2015,12,06,14,10,9.70
2015,12,06,14,11,9.70
2015,12,06,14,12,9.70
2015,12,06,14,13,9.70
2015,12,06,14,14,9.70
2015,12,06,14,15,9.70
2015,12,06,14,16,9.70
2015,12,06,14,17,9.70
2015,12,06,14,18,9.70
2015,12,06,14,19,9.70
2015,12,06,14,20,9.70
2015,12,06,14,21,9.70
2015,12,06,14,22,9.70
2015,12,06,14,23,9.70
2015,12,06,14,24,9.70
2015,12,06,14,25,9.70
2015,12,06,14,26,9.70
2015,12,06,14,27,9.70
2015,12,06,14,28,9.70
2015,12,06,14,29,9.70
2015,12,06,14,30,9.70
2015,12,06,14,31,9.80
2015,12,06,14,32,9.80
2015,12,06,14,33,9.80
2015,12,06,14,34,9.80
2015,12,06,14,35,9.80
2015,12,06,14,36,9.80
2015,12,06,14,37,9.80
2015,12,06,14,38,9.80
2015,12,06,14,39,9.80
2015,12,06,14,40,9.80
2015,12,06,14,41,9.80
2015,12,06,14,42,9.80
2015,12,06,14,43,9.80
2015,12,06,14,44,9.80
2015,12,06,14,45,9.80
2015,12,06,14,46,9.80
2015,12,06,14,47,9.80
2015,12,06,14,48,9.80
2015,12,06,14,49,9.80
2015,12,06,14,50,9.80
2015,12,06,14,51,9.80
2015,12,06,14,52,9.80
2015,12,06,14,53,9.80
2015,12,06,14,54,9.80
2015,12,06,14,55,9.80
2015,12,06,14,56,9.80
2015,12,06,14,57,9.80
2015,12,06,14,58,9.80
2015,12,06,14,59,9.80
2015,12,06,15,00,9.80
2015,12,06,15,01,9.90
2015,12,06,15,02,9.90
2015,12,06,15,03,9.90
2015,12,06,15,04,9.90
2015,12,06,15,05,9.90
2015,12,06,15,06,9.90
2015,12,06,15,07,9.90
2015,12,06,15,08,9.90
2015,12,06,15,09,9.90
2015,12,06,15,10,9.90
2015,12,06,15,11,9.90
2015,12,06,15,12,9.90
2015,12,06,15,13,9.90
2015,12,06,15,14,9.90
2015,12,06,15,15,9.90
2015,12,06,15,16,9.90
2015,12,06,15,17,9.90
2015,12,06,15,18,9.90
2015,12,06,15,19,9.90
2015,12,06,15,20,9.90
2015,12,06,15,21,9.90
2015,12,06,15,22,9.90
2015,12,06,15,23,9.90
2015,12,06,15,24,9.90
2015,12,06,15,25,9.90
2015,12,06,15,26,9.90
2015,12,06,15,27,9.90
2015,12,06,15,28,9.90
2015,12,06,15,29,9.90
2015,12,06,15,30,9.90
2015,12,06,15,31,9.90
2015,12,06,15,32,9.90
2015,12,06,15,33,9.90
2015,12,06,15,34,9.90
2015,12,06,15,35,9.90
2015,12,06,15,36,9.90
2015,12,06,15,37,9.90
2015,12,06,15,38,9.90
2015,12,06,15,39,9.90
2015,12,06,15,40,9.90
2015,12,06,15,41,9.90
2015,12,06,15,42,9.90
2015,12,06,15,43,9.90
2015,12,06,15,44,9.90
2015,12,06,15,45,9.90
2015,12,06,15,46,9.90
2015,12,06,15,47,9.90
2015,12,06,15,48,9.90
2015,12,06,15,49,9.90
2015,12,06,15,50,9.90
2015,12,06,15,51,9.90
2015,12,06,15,52,9.90
2015,12,06,15,53,9.90
2015,12,06,15,54,9.90
2015,12,06,15,55,9.90
2015,12,06,15,56,9.90
2015,12,06,15,57,9.90
2015,12,06,15,58,9.90
2015,12,06,15,59,9.90
2015,12,06,16,00,9.90
2015,12,06,16,01,9.70
2015,12,06,16,02,9.70
2015,12,06,16,03,9.70
2015,12,06,16,04,9.70
2015,12,06,16,05,9.70
2015,12,06,16,06,9.70
2015,12,06,16,07,9.70
2015,12,06,16,08,9.70
2015,12,06,16,09,9.70
2015,12,06,16,10,9.70
2015,12,06,16,11,9.70
2015,12,06,16,12,9.70
2015,12,06,16,13,9.70
2015,12,06,16,14,9.70
2015,12,06,16,15,9.70
2015,12,06,16,16,9.70
2015,12,06,16,17,9.70
2015,12,06,16,18,9.70
2015,12,06,16,19,9.70
2015,12,06,16,20,9.70
2015,12,06,16,21,9.70
2015,12,06,16,22,9.70
2015,12,06,16,23,9.70
2015,12,06,16,24,9.70
2015,12,06,16,25,9.70
2015,12,06,16,26,9.70
2015,12,06,16,27,9.70
2015,12,06,16,28,9.70
2015,12,06,16,29,9.70
2015,12,06,16,30,9.70
2015,12,06,16,31,9.70
2015,12,06,16,32,9.70
2015,12,06,16,33,9.70
2015,12,06,16,34,9.70
2015,12,06,16,35,9.70
2015,12,06,16,36,9.70
2015,12,06,16,37,9.70
2015,12,06,16,38,9.70
2015,12,06,16,39,9.70
2015,12,06,16,40,9.70
2015,12,06,16,41,9.70
2015,12,06,16,42,9.70
2015,12,06,16,43,9.70
2015,12,06,16,44,9.70
2015,12,06,16,45,9.70
2015,12,06,16,46,9.70
2015,12,06,16,47,9.70
2015,12,06,16,48,9.70
2015,12,06,16,49,9.70
2015,12,06,16,50,9.70
2015,12,06,16,51,9.70
2015,12,06,16,52,9.70
2015,12,06,16,53,9.70
2015,12,06,16,54,9.70
2015,12,06,16,55,9.70
2015,12,06,16,56,9.70
2015,12,06,16,57,9.70
2015,12,06,16,58,9.70
2015,12,06,16,59,9.70
2015,12,06,17,00,9.70
2015,12,06,17,01,9.60
2015,12,06,17,02,9.60
2015,12,06,17,03,9.60
2015,12,06,17,04,9.60
2015,12,06,17,05,9.60
2015,12,06,17,06,9.60
2015,12,06,17,07,9.60
2015,12,06,17,08,9.60
2015,12,06,17,09,9.60
2015,12,06,17,10,9.60
2015,12,06,17,11,9.60
2015,12,06,17,12,9.60
2015,12,06,17,13,9.60
2015,12,06,17,14,9.60
2015,12,06,17,15,9.60
2015,12,06,17,16,9.60
2015,12,06,17,17,9.60
2015,12,06,17,18,9.60
2015,12,06,17,19,9.60
2015,12,06,17,20,9.60
2015,12,06,17,21,9.60
2015,12,06,17,22,9.60
2015,12,06,17,23,9.60
2015,12,06,17,24,9.60
2015,12,06,17,26,9.60
2015,12,06,17,27,9.60
2015,12,06,17,28,9.60
2015,12,06,17,29,9.60
2015,12,06,17,30,9.60
2015,12,06,17,31,9.80
2015,12,06,17,32,9.80
2015,12,06,17,33,9.80
2015,12,06,17,34,9.80
2015,12,06,17,35,9.80
2015,12,06,17,36,9.80
2015,12,06,17,37,9.80
2015,12,06,17,38,9.80
2015,12,06,17,39,9.80
2015,12,06,17,40,9.80
2015,12,06,17,41,9.80
2015,12,06,17,42,9.80
2015,12,06,17,43,9.80
2015,12,06,17,44,9.80
2015,12,06,17,45,9.80
2015,12,06,17,46,9.80
2015,12,06,17,47,9.80
2015,12,06,17,48,9.80
2015,12,06,17,49,9.80
2015,12,06,17,50,9.80
2015,12,06,17,51,9.80
2015,12,06,17,52,9.80
2015,12,06,17,53,9.80
2015,12,06,17,54,9.80
2015,12,06,17,55,9.80
2015,12,06,17,56,9.80
2015,12,06,17,57,9.80
2015,12,06,17,58,9.80
2015,12,06,17,59,9.80
2015,12,06,18,00,9.80
2015,12,06,18,01,10.20
2015,12,06,18,02,10.20
2015,12,06,18,03,10.20
2015,12,06,18,04,10.20
2015,12,06,18,05,10.20
2015,12,06,18,06,10.20
2015,12,06,18,07,10.20
2015,12,06,18,08,10.20
2015,12,06,18,09,10.20
2015,12,06,18,10,10.20
2015,12,06,18,11,10.20
2015,12,06,18,12,10.20
2015,12,06,18,13,10.20
2015,12,06,18,14,10.20
2015,12,06,18,15,10.20
2015,12,06,18,16,10.20
2015,12,06,18,17,10.20
2015,12,06,18,18,10.20
2015,12,06,18,19,10.20
2015,12,06,18,20,10.20
2015,12,06,18,21,10.20
2015,12,06,18,22,10.20
2015,12,06,18,23,10.20
2015,12,06,18,24,10.20
2015,12,06,18,25,10.20
2015,12,06,18,26,10.20
2015,12,06,18,27,10.20
2015,12,06,18,28,10.20
2015,12,06,18,29,10.20
2015,12,06,18,30,10.20
2015,12,06,18,31,10.60
2015,12,06,18,32,10.60
2015,12,06,18,33,10.60
2015,12,06,18,34,10.60
2015,12,06,18,35,10.60
2015,12,06,18,36,10.60
2015,12,06,18,37,10.60
2015,12,06,18,38,10.60
2015,12,06,18,39,10.60
2015,12,06,18,40,10.60
2015,12,06,18,41,10.60
2015,12,06,18,42,10.60
2015,12,06,18,43,10.60
2015,12,06,18,44,10.60
2015,12,06,18,45,10.60
2015,12,06,18,46,10.60
2015,12,06,18,47,10.60
2015,12,06,18,48,10.60
2015,12,06,18,49,10.60
2015,12,06,18,50,10.60
2015,12,06,18,51,10.60
2015,12,06,18,52,10.60
2015,12,06,18,53,10.60
2015,12,06,18,54,10.60
2015,12,06,18,55,10.60
2015,12,06,18,56,10.60
2015,12,06,18,57,10.60
2015,12,06,18,58,10.60
2015,12,06,18,59,10.60
2015,12,06,19,00,10.60
2015,12,06,19,01,10.80
2015,12,06,19,02,10.80
2015,12,06,19,03,10.80
2015,12,06,19,04,10.80
2015,12,06,19,05,10.80
2015,12,06,19,06,10.80
2015,12,06,19,07,10.80
2015,12,06,19,08,10.80
2015,12,06,19,09,10.80
2015,12,06,19,10,10.80
2015,12,06,19,11,10.80
2015,12,06,19,12,10.80
2015,12,06,19,13,10.80
2015,12,06,19,14,10.80
2015,12,06,19,15,10.80
2015,12,06,19,16,10.80
2015,12,06,19,17,10.80
2015,12,06,19,18,10.80
2015,12,06,19,19,10.80
2015,12,06,19,20,10.80
2015,12,06,19,21,10.80
2015,12,06,19,22,10.80
2015,12,06,19,23,10.80
2015,12,06,19,24,10.80
2015,12,06,19,25,10.80
2015,12,06,19,26,10.80
2015,12,06,19,27,10.80
2015,12,06,19,28,10.80
2015,12,06,19,29,10.80
2015,12,06,19,30,10.80
2015,12,06,19,31,11.40
2015,12,06,19,32,11.40
2015,12,06,19,33,11.40